Kelly, NC

11:16 AM EST on February 27, 2017 (GMT -0500)
Elizabethtown

Weather History for KEYF - February, 2012

Change the Weather History Date:

Sunday, February 12, 2012

  Actual Average (KILM) Record (KILM)
Temperature  
Mean Temperature 33 °F -  
Max Temperature 42 °F 57 °F 78 °F (1965)
Min Temperature 24 °F 34 °F 14 °F (1899)
Degree Days  
Heating Degree Days 32    
Moisture  
Dew Point 5 °F    
Average Humidity 33    
Maximum Humidity 43    
Minimum Humidity 25    
Precipitation  
Precipitation 0.00 in - - ()
Sea Level Pressure  
Sea Level Pressure 30.18 in    
Wind  
Wind Speed 13 mph (NW)    
Max Wind Speed 18 mph    
Max Gust Speed 29 mph    
Visibility 10 miles    
Events      
Averages and records for this station are not official NWS values.
T = Trace of Precipitation, MM = Missing Value Source: NWS Daily Summary

Daily Weather History Graph

Daily Weather History Graph

Search for Another Location

Airport or City:

Trip Planner

Search our weather history database for the weather conditions in past years. The results will help you decide how hot, cold, wet, or windy it might be!

Date:

Astronomy

Feb. 12, 2012 Rise Set
Actual Time 7:02 AM EST 5:53 PM EST
Civil Twilight 6:36 AM EST 6:19 PM EST
Nautical Twilight 6:06 AM EST 6:48 PM EST
Astronomical Twilight 5:37 AM EST 7:18 PM EST
Moon 11:30 PM EST (2/12) 9:36 AM EST (2/12)
Length of Visible Light 11h 42m
Length of Day
10h 50m
Waning Gibbous, 72% of the Moon is Illuminated
Feb 12
Waning Gibbous
Feb 14
Last Quarter
Feb 21
New
Feb 29
First Quarter
Mar 8
Full

Hourly Weather History & Observations

Time (EST) Temp. Windchill Dew Point Humidity Pressure Visibility Wind Dir Wind Speed Gust Speed Precip Events Conditions
12:15 AM 28.4 °F 17.0 °F 3.2 °F 34% 30.06 in 10.0 mi NW 15.0 mph 21.9 mph N/A   Clear
12:35 AM 28.4 °F 17.0 °F 3.2 °F 34% 30.07 in 10.0 mi NW 15.0 mph 26.5 mph N/A   Clear
12:55 AM 28.4 °F 16.6 °F 3.2 °F 34% 30.07 in 10.0 mi NW 16.1 mph 25.3 mph N/A   Clear
1:15 AM 28.4 °F 15.8 °F 3.2 °F 34% 30.07 in 10.0 mi WNW 18.4 mph 26.5 mph N/A   Clear
1:35 AM 28.4 °F 15.8 °F 3.2 °F 34% 30.08 in 10.0 mi NW 18.4 mph 28.8 mph N/A   Clear
1:55 AM 28.4 °F 18.5 °F 3.2 °F 34% 30.08 in 10.0 mi NW 11.5 mph 23.0 mph N/A   Clear
2:15 AM 28.4 °F 17.0 °F 3.2 °F 34% 30.09 in 10.0 mi NW 15.0 mph 24.2 mph N/A   Clear
2:35 AM 28.4 °F 16.6 °F 3.2 °F 34% 30.09 in 10.0 mi NW 16.1 mph 27.6 mph N/A   Clear
2:55 AM 28.4 °F 16.2 °F 3.2 °F 34% 30.11 in 10.0 mi NW 17.3 mph 23.0 mph N/A   Clear
3:15 AM 28.4 °F 17.0 °F 3.2 °F 34% 30.11 in 10.0 mi NW 15.0 mph 25.3 mph N/A   Clear
3:35 AM 28.4 °F 17.5 °F 3.2 °F 34% 30.11 in 10.0 mi NW 13.8 mph 24.2 mph N/A   Clear
3:55 AM 26.6 °F 16.8 °F 3.2 °F 37% 30.12 in 10.0 mi NW 10.4 mph 18.4 mph N/A   Clear
4:15 AM 26.6 °F 16.8 °F 3.2 °F 37% 30.13 in 10.0 mi WNW 10.4 mph - N/A   Clear
4:35 AM 26.6 °F 14.3 °F 3.2 °F 37% 30.15 in 10.0 mi NW 16.1 mph 21.9 mph N/A   Clear
4:55 AM 26.6 °F 14.7 °F 3.2 °F 37% 30.16 in 10.0 mi NW 15.0 mph 20.7 mph N/A   Clear
5:15 AM 26.6 °F 16.2 °F 3.2 °F 37% 30.16 in 10.0 mi NW 11.5 mph 16.1 mph N/A   Clear
5:35 AM 26.6 °F 15.7 °F 3.2 °F 37% 30.18 in 10.0 mi NW 12.7 mph - N/A   Clear
6:15 AM 26.6 °F 18.2 °F 3.2 °F 37% 30.18 in 10.0 mi NW 8.1 mph 17.3 mph N/A   Clear
6:35 AM 26.6 °F 16.8 °F 3.2 °F 37% 30.19 in 10.0 mi NW 10.4 mph - N/A   Clear
6:55 AM 26.6 °F 16.8 °F 5.0 °F 40% 30.20 in 10.0 mi NW 10.4 mph 19.6 mph N/A   Clear
7:15 AM 26.6 °F 19.1 °F 5.0 °F 40% 30.20 in 10.0 mi NW 6.9 mph - N/A   Clear
7:35 AM 24.8 °F 16.9 °F 5.0 °F 43% 30.21 in 10.0 mi WNW 6.9 mph - N/A   Clear
7:55 AM 24.8 °F 15.3 °F 5.0 °F 43% 30.22 in 10.0 mi NW 9.2 mph - N/A   Clear
8:15 AM 26.6 °F 16.8 °F 5.0 °F 40% 30.22 in 10.0 mi NW 10.4 mph - N/A   Clear
8:35 AM 26.6 °F 15.2 °F 5.0 °F 40% 30.24 in 10.0 mi NW 13.8 mph 19.6 mph N/A   Clear
8:55 AM 26.6 °F 14.7 °F 3.2 °F 37% 30.25 in 10.0 mi NW 15.0 mph 23.0 mph N/A   Clear
9:15 AM 28.4 °F 16.6 °F 3.2 °F 34% 30.26 in 10.0 mi NW 16.1 mph 24.2 mph N/A   Clear
9:35 AM 28.4 °F 18.5 °F 3.2 °F 34% 30.26 in 10.0 mi NW 11.5 mph 23.0 mph N/A   Clear
9:55 AM 30.2 °F 20.2 °F 3.2 °F 32% 30.27 in 10.0 mi NW 12.7 mph 20.7 mph N/A   Clear
10:15 AM 30.2 °F 20.2 °F 3.2 °F 32% 30.27 in 10.0 mi NW 12.7 mph 19.6 mph N/A   Clear
10:35 AM 30.2 °F 19.3 °F 3.2 °F 32% 30.27 in 10.0 mi NW 15.0 mph 20.7 mph N/A   Clear
10:55 AM 32.0 °F 22.5 °F 5.0 °F 32% 30.27 in 10.0 mi NW 12.7 mph 19.6 mph N/A   Clear
11:35 AM 32.0 °F 23.0 °F 5.0 °F 32% 30.26 in 10.0 mi NW 11.5 mph - N/A   Clear
11:55 AM 33.8 °F 23.9 °F 5.0 °F 30% 30.26 in 10.0 mi WNW 15.0 mph 19.6 mph N/A   Clear
12:15 PM 33.8 °F 24.8 °F 5.0 °F 30% 30.24 in 10.0 mi WNW 12.7 mph 17.3 mph N/A   Clear
12:35 PM 35.6 °F 27.1 °F 5.0 °F 28% 30.23 in 10.0 mi NW 12.7 mph 19.6 mph N/A   Clear
12:55 PM 35.6 °F 28.6 °F 6.8 °F 30% 30.21 in 10.0 mi NW 9.2 mph 17.3 mph N/A   Clear
1:15 PM 35.6 °F 27.5 °F 5.0 °F 28% 30.21 in 10.0 mi NW 11.5 mph 21.9 mph N/A   Clear
1:55 PM 37.4 °F 30.8 °F 6.8 °F 28% 30.18 in 10.0 mi NW 9.2 mph 16.1 mph N/A   Clear
2:15 PM 37.4 °F 28.5 °F 6.8 °F 28% 30.17 in 10.0 mi NW 15.0 mph 24.2 mph N/A   Clear
2:35 PM 39.2 °F 31.2 °F 8.6 °F 28% 30.16 in 10.0 mi NW 13.8 mph - N/A   Clear
2:55 PM 41.0 °F 35.2 °F 8.6 °F 26% 30.16 in 10.0 mi NW 9.2 mph 17.3 mph N/A   Clear
3:15 PM 41.0 °F 33.9 °F 8.6 °F 26% 30.16 in 10.0 mi WNW 12.7 mph 19.6 mph N/A   Clear
3:35 PM 41.0 °F 34.3 °F 8.6 °F 26% 30.16 in 10.0 mi NW 11.5 mph 18.4 mph N/A   Clear
3:55 PM 42.8 °F 36.2 °F 8.6 °F 25% 30.16 in 10.0 mi NW 12.7 mph 17.3 mph N/A   Clear
4:15 PM 42.8 °F 36.6 °F 8.6 °F 25% 30.16 in 10.0 mi NW 11.5 mph 16.1 mph N/A   Clear
4:35 PM 42.8 °F 38.0 °F 8.6 °F 25% 30.16 in 10.0 mi WNW 8.1 mph - N/A   Clear
4:55 PM 42.8 °F 37.5 °F 8.6 °F 25% 30.16 in 10.0 mi NW 9.2 mph 17.3 mph N/A   Clear
5:15 PM 42.8 °F 37.0 °F 8.6 °F 25% 30.16 in 10.0 mi WNW 10.4 mph - N/A   Clear
5:35 PM 42.8 °F 36.2 °F 8.6 °F 25% 30.17 in 10.0 mi NW 12.7 mph 18.4 mph N/A   Clear
5:55 PM 41.0 °F 36.4 °F 8.6 °F 26% 30.18 in 10.0 mi WNW 6.9 mph - N/A   Clear
6:15 PM 41.0 °F 36.4 °F 8.6 °F 26% 30.18 in 10.0 mi WNW 6.9 mph - N/A   Clear
6:35 PM 39.2 °F 35.0 °F 10.4 °F 31% 30.19 in 10.0 mi West 5.8 mph - N/A   Clear
6:55 PM 37.4 °F 33.8 °F 10.4 °F 33% 30.20 in 10.0 mi West 4.6 mph - N/A   Clear
7:15 PM 37.4 °F 33.8 °F 10.4 °F 33% 30.20 in 10.0 mi West 4.6 mph - N/A   Clear
7:35 PM 35.6 °F 32.8 °F 10.4 °F 35% 30.21 in 10.0 mi WSW 3.5 mph - N/A   Clear
7:55 PM 35.6 °F 32.8 °F 10.4 °F 35% 30.21 in 10.0 mi West 3.5 mph - N/A   Clear
8:15 PM 33.8 °F 30.8 °F 12.2 °F 41% 30.22 in 10.0 mi WSW 3.5 mph - N/A   Clear
8:35 PM 33.8 °F 30.8 °F 12.2 °F 41% 30.22 in 10.0 mi SW 3.5 mph - N/A   Clear
8:55 PM 32.0 °F - 14.0 °F 48% 30.22 in 10.0 mi Calm Calm - N/A   Clear
9:15 PM 32.0 °F 28.7 °F 12.2 °F 44% 30.23 in 10.0 mi WSW 3.5 mph - N/A   Clear
9:35 PM 32.0 °F 28.7 °F 14.0 °F 48% 30.23 in 10.0 mi SW 3.5 mph - N/A   Clear
9:55 PM 32.0 °F 28.7 °F 12.2 °F 44% 30.24 in 10.0 mi SW 3.5 mph - N/A   Clear
10:15 PM 33.8 °F 30.8 °F 12.2 °F 41% 30.24 in 10.0 mi SW 3.5 mph - N/A   Clear
10:35 PM 32.0 °F 27.5 °F 12.2 °F 44% 30.24 in 10.0 mi SW 4.6 mph - N/A   Clear
10:55 PM 32.0 °F 28.7 °F 14.0 °F 48% 30.24 in 10.0 mi SW 3.5 mph - N/A   Clear
11:15 PM 32.0 °F 28.7 °F 12.2 °F 44% 30.24 in 10.0 mi SW 3.5 mph - N/A   Clear
11:35 PM 32.0 °F 28.7 °F 12.2 °F 44% 30.25 in 10.0 mi WSW 3.5 mph - N/A   Clear
11:55 PM 32.0 °F 28.7 °F 14.0 °F 48% 30.25 in 10.0 mi WSW 3.5 mph - N/A   Clear